Weather History for Kirksville, MO

Change the Weather History Date:

Thursday, January 10, 2013

  Actual Average Record
Temperature  
Mean Temperature 36 °F 26 °F  
Max Temperature 41 °F 35 °F 56 °F (2012)
Min Temperature 31 °F 17 °F -23 °F (1982)
Degree Days  
Heating Degree Days 29 39  
Month to date heating degree days 374 390  
Since 1 July heating degree days 2616 2733  
Cooling Degree Days 0 0  
Month to date cooling degree days 0 0  
Year to date cooling degree days 0 0  
Moisture  
Dew Point 34 °F    
Average Humidity 77    
Maximum Humidity 100    
Minimum Humidity 54    
Precipitation  
Precipitation 0.20 in 0.03 in 0.73 in (1949)
Month to date precipitation 0.26 0.31  
Year to date precipitation 0.26 0.31  
Sea Level Pressure  
Sea Level Pressure 30.09 in    
Wind  
Wind Speed 8 mph (ESE)    
Max Wind Speed 15 mph    
Max Gust Speed 22 mph    
Visibility 4 miles    
Events Fog , Rain    
T = Trace of Precipitation, MM = Missing Value Source: NWS Daily Summary

Daily Weather History Graph

Daily Weather History Graph

Search for Another Location

Airport:

Trip Planner

Search our weather history database for the weather conditions in past years. The results will help you decide how hot, cold, wet, or windy it might be!

Date:

Astronomy

Jan. 10, 2013 Rise Set
Actual Time 7:31 AM CST 5:04 PM CST
Civil Twilight 7:01 AM CST 5:34 PM CST
Nautical Twilight 6:28 AM CST 6:07 PM CST
Astronomical Twilight 5:55 AM CST 6:40 PM CST
Moon 6:12 AM CST (1/10) 4:12 PM CST (1/10)
Length of Visible Light 10h 32m
Length of Day
9h 32m
Waning Crescent, 2% of the Moon is Illuminated
Jan 10
Waning Crescent
Jan 11
New
Jan 18
First Quarter
Jan 26
Full
Feb 3
Last Quarter

Hourly Weather History & Observations

Time (CST) Temp. Windchill Dew Point Humidity Pressure Visibility Wind Dir Wind Speed Gust Speed Precip Events Conditions
12:55 AM 33.1 °F 26.9 °F 27.0 °F 78% 30.43 in 10.0 mi ESE 6.9 mph - N/A   Clear
1:55 AM 33.1 °F 27.7 °F 27.0 °F 78% 30.43 in 10.0 mi ESE 5.8 mph - N/A   Clear
2:55 AM 34.0 °F 28.0 °F 28.0 °F 79% 30.41 in 10.0 mi ESE 6.9 mph - N/A   Clear
3:55 AM 36.0 °F 29.6 °F 28.0 °F 73% 30.37 in 10.0 mi ESE 8.1 mph - N/A   Clear
4:55 AM 36.0 °F 29.6 °F 27.0 °F 70% 30.36 in 10.0 mi ESE 8.1 mph - N/A   Clear
5:55 AM 37.0 °F 31.6 °F 27.0 °F 67% 30.34 in 10.0 mi ESE 6.9 mph - N/A   Mostly Cloudy
6:55 AM 37.9 °F 30.5 °F 27.0 °F 65% 30.30 in 10.0 mi East 11.5 mph - N/A   Overcast
7:55 AM 39.0 °F 31.4 °F 25.0 °F 57% 30.27 in 10.0 mi East 12.7 mph - 0.00 in   Overcast
8:55 AM 39.0 °F 31.8 °F 26.1 °F 60% 30.25 in 10.0 mi East 11.5 mph - 0.00 in Rain Light Rain
9:55 AM 39.9 °F 33.4 °F 27.0 °F 60% 30.22 in 10.0 mi ESE 10.4 mph - 0.00 in   Overcast
10:34 AM 37.4 °F 28.9 °F 30.2 °F 75% 30.16 in 2.5 mi ESE 13.8 mph 21.9 mph 0.00 in Rain Light Rain
10:47 AM 35.6 °F 26.6 °F 33.8 °F 93% 30.16 in 1.8 mi ESE 13.8 mph - 0.01 in Rain Light Rain
10:55 AM 36.0 °F 28.0 °F 34.0 °F 93% 30.19 in 1.2 mi ESE 11.5 mph - 0.02 in Rain Light Rain
11:22 AM 35.6 °F 27.5 °F 35.6 °F 100% 30.11 in 1.5 mi East 11.5 mph - 0.04 in Rain Light Rain
11:33 AM 37.4 °F 29.8 °F 35.6 °F 93% 30.09 in 2.0 mi ESE 11.5 mph - 0.05 in Rain Light Rain
11:50 AM 37.4 °F 29.3 °F 35.6 °F 93% 30.05 in 1.8 mi East 12.7 mph - 0.06 in Rain Light Rain
11:55 AM 37.4 °F 29.3 °F 35.6 °F 93% 30.04 in 1.8 mi East 12.7 mph - N/A Rain Light Rain
11:59 AM 37.4 °F 29.8 °F 35.6 °F 93% 30.04 in 2.0 mi East 11.5 mph - 0.00 in Rain Light Rain
12:15 PM 37.4 °F 29.3 °F 35.6 °F 93% 30.03 in 5.0 mi ESE 12.7 mph - 0.00 in   Overcast
12:55 PM 37.0 °F 29.3 °F 36.0 °F 96% 30.05 in 5.0 mi ESE 11.5 mph - 0.00 in   Overcast
1:03 PM 37.4 °F 30.3 °F 35.6 °F 93% 30.01 in 1.8 mi ESE 10.4 mph - 0.00 in Rain Light Rain
1:37 PM 37.4 °F 30.8 °F 37.4 °F 100% 29.97 in 1.5 mi ESE 9.2 mph - 0.03 in   Overcast
1:51 PM 37.4 °F 30.3 °F 37.4 °F 100% 29.97 in 0.8 mi ESE 10.4 mph - 0.03 in   Overcast
1:55 PM 37.0 °F 31.6 °F 37.0 °F 100% 30.01 in 0.5 mi ESE 6.9 mph - 0.03 in Fog Fog
2:55 PM 37.9 °F 30.5 °F 37.9 °F 100% 29.99 in 0.2 mi ESE 11.5 mph - N/A Fog Fog
3:55 PM 37.9 °F 30.9 °F 37.9 °F 100% 29.96 in 0.2 mi ESE 10.4 mph - 0.00 in Fog , Rain Light Rain
4:55 PM 37.9 °F 31.5 °F 37.9 °F 100% 29.95 in 0.2 mi ESE 9.2 mph - 0.02 in Fog , Rain Light Rain
5:55 PM 39.0 °F 34.0 °F 39.0 °F 100% 29.94 in 0.2 mi ESE 6.9 mph - 0.01 in Fog Fog
6:55 PM 39.0 °F 34.0 °F 39.0 °F 100% 29.90 in 0.5 mi East 6.9 mph - 0.03 in Fog , Rain Light Rain
7:55 PM 39.0 °F 34.8 °F 39.0 °F 100% 29.87 in 0.5 mi East 5.8 mph - 0.00 in Fog Fog
8:55 PM 39.0 °F 33.4 °F 39.0 °F 100% 29.84 in 0.2 mi ESE 8.1 mph - 0.01 in Fog , Rain Light Rain
9:55 PM 39.9 °F 36.7 °F 39.9 °F 100% 29.82 in 0.2 mi SSE 4.6 mph - 0.02 in Fog , Rain Light Rain
10:55 PM 39.9 °F 37.8 °F 39.9 °F 100% 29.78 in 0.2 mi ESE 3.5 mph - 0.00 in Fog Fog
11:55 PM 41.0 °F - 41.0 °F 100% 29.75 in 0.2 mi Calm Calm - N/A Fog Fog